Location: Tucson
(32.2217°N, 110.9265°W)
Time: 14:33:08
(UTC-07:00)

A-11 Canister half - Pass Details

Date: 01 November 2021
Orbit: 1516 x 1684 km, 47.2° (Epoch: 04 December)

Event Time Altitude Azimuth Distance (km) Brightness Sun altitude
Rises 20:45:28 0° 304° (NW) 4,909 12.4 -41.1°
Reaches altitude 10° 20:48:55 10° 311° (NW) 3,903 11.6 -41.8°
Enters shadow 20:55:48 38° 347° (NNW) 2,299 9.9 -43.2°
